This is the latest recevied weather packets stored in our database for station/object KC0AFB. If no packets are shown the sender has not sent any weather packets the latest 10 day(s).
| Time | Temp. | Humidity | Pressure | Rain* | Wind** | Luminosity | Snow |
|---|---|---|---|---|---|---|---|
| 1778259815 | 17.78° C | 36% | 1009.4 hPa | 0 mm | - | 828 W/m² | - |
| 1778259511 | 17.22° C | 37% | 1009.5 hPa | 0 mm | - | 822 W/m² | - |
| 1778259208 | 17.22° C | 37% | 1009.5 hPa | 0 mm | - | 819 W/m² | - |
| 1778258904 | 17.22° C | 37% | 1009.4 hPa | 0 mm | - | 810 W/m² | - |
| 1778258601 | 17.22° C | 38% | 1009.5 hPa | 0 mm | - | 824 W/m² | - |
| 1778258299 | 17.22° C | 39% | 1009.3 hPa | 0 mm | - | 794 W/m² | - |
| 1778257996 | 17.22° C | 39% | 1009.2 hPa | 0 mm | - | 783 W/m² | - |
| 1778257692 | 16.67° C | 39% | 1009.2 hPa | 0 mm | - | 768 W/m² | - |
| 1778257389 | 16.67° C | 40% | 1009.2 hPa | 0 mm | - | 771 W/m² | - |
| 1778257086 | 16.67° C | 40% | 1009 hPa | 0 mm | - | 708 W/m² | - |
| 1778256783 | 16.67° C | 40% | 1009.3 hPa | 0 mm | - | 710 W/m² | - |
| 1778256481 | 16.67° C | 41% | 1009.3 hPa | 0 mm | - | 707 W/m² | - |
| 1778256179 | 16.11° C | 40% | 1009.3 hPa | 0 mm | - | 706 W/m² | - |
| 1778255875 | 16.11° C | 40% | 1009.2 hPa | 0 mm | - | 693 W/m² | - |
| 1778255573 | 15.56° C | 42% | 1009.4 hPa | 0 mm | - | 687 W/m² | - |
| 1778255269 | 15.56° C | 41% | 1008.9 hPa | 0 mm | - | 687 W/m² | - |
| 1778254967 | 15.56° C | 40% | 1009.2 hPa | 0 mm | - | 650 W/m² | - |
| 1778254663 | 15.56° C | 41% | 1008.9 hPa | 0 mm | - | 615 W/m² | - |
| 1778254361 | 15.56° C | 42% | 1009.4 hPa | 0 mm | - | 449 W/m² | - |
| 1778254057 | 15° C | 41% | 1009.3 hPa | 0 mm | - | 64 W/m² | - |
| 1778253753 | 15.56° C | 41% | 1009.3 hPa | 0 mm | - | 69 W/m² | - |
| 1778253449 | 15° C | 41% | 1009.3 hPa | 0 mm | - | 88 W/m² | - |
| 1778253146 | 14.44° C | 40% | 1009.4 hPa | 0 mm | - | 560 W/m² | - |
| 1778252843 | 15° C | 40% | 1009.2 hPa | 0 mm | - | 549 W/m² | - |
| 1778252539 | 15° C | 40% | 1009 hPa | 0 mm | - | 530 W/m² | - |
* Rain latest hour (hover to see other rain measurements)
** Current wind speed in m/s (hover to see current wind gust speed)